TimeMST,TemperatureF,Dew PointF,Humidity,Sea Level PressureIn,VisibilityMPH,Wind Direction,Wind SpeedMPH,Gust SpeedMPH,PrecipitationIn,Events,Conditions,WindDirDegrees,DateUTC
12:43 AM,24.8,14.0,64,30.29,10.0,SSE,9.2,-,N/A,,Overcast,160,2012-12-10 07:43:00
12:48 AM,24.8,14.0,64,30.28,10.0,SSE,10.4,-,N/A,,Overcast,160,2012-12-10 07:48:00
12:58 AM,24.1,14.7,68,30.36,10.0,SSE,9.2,-,N/A,,Overcast,160,2012-12-10 07:58:00
1:58 AM,24.1,14.2,66,30.34,10.0,South,10.4,-,N/A,,Overcast,180,2012-12-10 08:58:00
2:58 AM,24.8,13.3,62,30.34,10.0,South,10.4,-,N/A,,Overcast,170,2012-12-10 09:58:00
3:58 AM,25.2,13.8,62,30.30,10.0,South,8.1,-,N/A,,Overcast,180,2012-12-10 10:58:00
4:37 AM,24.8,15.8,69,30.23,10.0,SSW,8.1,-,N/A,Snow,Light Snow,200,2012-12-10 11:37:00
4:46 AM,24.8,15.8,69,30.22,10.0,SSW,8.1,-,N/A,,Overcast,200,2012-12-10 11:46:00
4:52 AM,24.8,15.8,69,30.21,10.0,South,11.5,-,N/A,Snow,Light Snow,180,2012-12-10 11:52:00
4:58 AM,24.8,15.8,69,30.30,10.0,South,10.4,-,0.00,Snow,Light Snow,180,2012-12-10 11:58:00
5:14 AM,24.8,15.8,69,30.19,10.0,South,12.7,-,N/A,,Overcast,170,2012-12-10 12:14:00
5:18 AM,24.8,15.8,69,30.20,10.0,South,11.5,-,N/A,Snow,Light Snow,180,2012-12-10 12:18:00
5:28 AM,24.8,15.8,69,30.20,10.0,South,10.4,-,N/A,,Overcast,170,2012-12-10 12:28:00
5:44 AM,24.8,15.8,69,30.20,10.0,South,10.4,-,N/A,Snow,Light Snow,180,2012-12-10 12:44:00
5:54 AM,24.8,15.8,69,30.20,8.0,South,10.4,-,N/A,Snow,Light Snow,180,2012-12-10 12:54:00
5:58 AM,24.8,16.3,70,30.30,8.0,South,10.4,-,0.00,Snow,Light Snow,180,2012-12-10 12:58:00
6:03 AM,24.8,15.8,69,30.20,10.0,South,11.5,-,N/A,Snow,Light Snow,180,2012-12-10 13:03:00
6:06 AM,24.8,15.8,69,30.19,10.0,South,11.5,-,N/A,,Overcast,180,2012-12-10 13:06:00
6:58 AM,25.2,16.0,68,30.27,10.0,South,13.8,-,0.00,,Overcast,170,2012-12-10 13:58:00
7:04 AM,24.8,15.8,69,30.18,10.0,South,13.8,-,N/A,Snow,Light Snow,170,2012-12-10 14:04:00
7:18 AM,24.8,14.0,64,30.18,10.0,South,15.0,-,N/A,,Overcast,170,2012-12-10 14:18:00
7:35 AM,24.8,15.8,69,30.19,10.0,South,11.5,-,N/A,Snow,Light Snow,180,2012-12-10 14:35:00
7:55 AM,24.8,17.6,74,30.19,9.0,South,12.7,-,N/A,Snow,Light Snow,190,2012-12-10 14:55:00
7:58 AM,24.1,18.1,78,30.28,9.0,South,12.7,-,0.00,Snow,Light Snow,190,2012-12-10 14:58:00
8:28 AM,23.0,19.4,86,30.18,0.8,South,12.7,-,N/A,Snow,Light Snow,180,2012-12-10 15:28:00
8:36 AM,23.0,19.4,86,30.18,4.0,South,11.5,-,N/A,Snow,Light Snow,190,2012-12-10 15:36:00
8:46 AM,23.0,19.4,86,30.18,8.0,South,10.4,-,N/A,Snow,Light Snow,180,2012-12-10 15:46:00
8:54 AM,23.0,19.4,86,30.18,10.0,South,10.4,-,N/A,,Overcast,170,2012-12-10 15:54:00
8:58 AM,23.5,18.9,82,30.28,10.0,SSW,10.4,-,0.00,,Overcast,200,2012-12-10 15:58:00
9:52 AM,24.8,19.4,80,30.19,10.0,SE,6.9,-,N/A,Snow,Light Snow,130,2012-12-10 16:52:00
9:58 AM,24.8,19.9,82,30.29,10.0,ESE,5.8,-,0.00,Snow,Light Snow,120,2012-12-10 16:58:00
10:18 AM,24.8,21.2,86,30.18,10.0,SE,6.9,-,N/A,,Overcast,130,2012-12-10 17:18:00
10:44 AM,24.8,21.2,86,30.19,10.0,South,6.9,-,N/A,Snow,Light Snow,190,2012-12-10 17:44:00
10:58 AM,25.5,20.8,82,30.29,10.0,South,4.6,-,0.00,Snow,Light Snow,170,2012-12-10 17:58:00
11:02 AM,24.8,21.2,86,30.19,10.0,SSE,4.6,-,N/A,,Overcast,150,2012-12-10 18:02:00
11:20 AM,26.6,21.2,80,30.19,4.0,South,5.8,-,N/A,Snow,Light Snow,170,2012-12-10 18:20:00
11:34 AM,26.6,21.2,80,30.19,5.0,SE,4.6,-,N/A,Snow,Light Snow,140,2012-12-10 18:34:00
11:56 AM,26.6,23.0,86,30.17,5.0,SSW,4.6,-,N/A,,Overcast,210,2012-12-10 18:56:00
11:58 AM,27.0,22.1,82,30.26,10.0,SSW,4.6,-,0.00,,Overcast,200,2012-12-10 18:58:00
12:38 PM,28.4,23.0,80,30.16,10.0,South,5.8,-,N/A,,Mostly Cloudy,180,2012-12-10 19:38:00
12:58 PM,28.0,23.2,82,30.23,10.0,SSE,6.9,-,N/A,,Overcast,160,2012-12-10 19:58:00
1:08 PM,28.4,23.0,80,30.15,10.0,South,9.2,-,N/A,,Overcast,190,2012-12-10 20:08:00
1:58 PM,27.9,23.7,84,30.21,10.0,SE,5.8,-,N/A,,Mostly Cloudy,130,2012-12-10 20:58:00
2:38 PM,28.4,24.8,86,30.13,10.0,SE,3.5,-,N/A,,Mostly Cloudy,130,2012-12-10 21:38:00
2:58 PM,30.0,24.4,80,30.19,10.0,SE,3.5,-,N/A,,Mostly Cloudy,140,2012-12-10 21:58:00
3:03 PM,30.2,24.8,80,30.13,10.0,ESE,4.6,-,N/A,,Overcast,120,2012-12-10 22:03:00
3:28 PM,32.0,24.8,75,30.12,10.0,SSE,2.3,-,N/A,,Scattered Clouds,150,2012-12-10 22:28:00
3:58 PM,31.8,24.6,75,30.17,10.0,Calm,Calm,-,N/A,,Clear,0,2012-12-10 22:58:00
4:58 PM,29.7,23.5,78,30.17,10.0,South,4.6,-,N/A,,Clear,190,2012-12-10 23:58:00
5:58 PM,24.3,21.7,90,30.19,10.0,South,5.8,-,N/A,,Clear,170,2012-12-11 00:58:00
6:58 PM,26.2,22.8,87,30.17,10.0,SSE,4.6,-,N/A,,Mostly Cloudy,160,2012-12-11 01:58:00
7:18 PM,26.6,23.0,86,30.11,10.0,SSW,2.3,-,N/A,,Scattered Clouds,200,2012-12-11 02:18:00
7:58 PM,29.5,22.5,75,30.17,10.0,SSW,4.6,-,N/A,,Partly Cloudy,210,2012-12-11 02:58:00
8:58 PM,28.0,22.3,79,30.18,10.0,South,5.8,-,N/A,,Partly Cloudy,180,2012-12-11 03:58:00
9:28 PM,30.2,23.0,75,30.11,10.0,SSE,4.6,-,N/A,,Mostly Cloudy,160,2012-12-11 04:28:00
9:58 PM,29.1,23.2,78,30.18,10.0,South,4.6,-,N/A,,Overcast,170,2012-12-11 04:58:00
10:58 PM,32.4,23.9,71,30.17,10.0,Calm,Calm,-,N/A,,Mostly Cloudy,0,2012-12-11 05:58:00
11:08 PM,32.0,23.0,69,30.11,10.0,ESE,1.2,-,N/A,,Scattered Clouds,120,2012-12-11 06:08:00
11:58 PM,25.3,19.9,80,30.18,10.0,SSE,10.4,-,N/A,,Clear,160,2012-12-11 06:58:00